Regional Weather Roundup
Issued by NWS

Home | Current Version | Previous Version | Text Only | Print | Product List | Glossary Off
Versions: 1 2 3 4 5 6 7 8 9 10 11 12 13 14 15 16 17 18 19 20 21 22 23 24 25 26 27 28 29 30 31 32 33 34 35 36 37 38 39 40 41 42 43 44 45 46 47 48 49 50

851
ASUS44 KMEG 271210
RWRTN
TENNESSEE HOURLY STATE WEATHER ROUNDUP
NATIONAL WEATHER SERVICE MEMPHIS TN
700 AM CDT SUN MAY 27 2018

TNZ002-004-019-021-049-052-054-088>092-271300-
WEST TENNESSEE

CITY           SKY/WX    TMP DP  RH WIND       PRES   REMARKS
MEMPHIS INTL   FAIR      73  71  93 CALM      29.91R
NWS MEMPHIS      N/A     69 N/A N/A MISG        N/A
JACKSON        FAIR      71  71 100 CALM      29.92S
DYERSBURG      FAIR      73  71  93 CALM      29.92R
SOMERVILLE     SUNNY     70  68  94 CALM      29.91R
COVINGTON      SUNNY     72  72 100 CALM      29.91S
UNION CITY     SUNNY     73  72  94 CALM      29.90R
BOLIVAR        MOSUNNY   72  70  94 CALM      29.93R
PARIS          MOSUNNY   72  70  94 CALM      29.93R
HUNTINGDON     SUNNY     70  70 100 CALM      29.92R
LEXINGTON      SUNNY     68  68 100 CALM      29.93R
SELMER         SUNNY     70  68  94 CALM      29.93R
SAVANNAH       MOSUNNY   70  70 100 CALM      29.92R
$$

TNZ008-025-027-028-033-062-065-066-271300-
NORTH MIDDLE TENNESSEE

CITY           SKY/WX    TMP DP  RH WIND       PRES   REMARKS
NASHVILLE      FAIR      70  68  93 S3        29.95R
DICKSON        SUNNY     70  70 100 CALM      29.94R
PORTLAND       MOSUNNY   70  70 100 S7        29.94R
CLARKSVILLE    PTSUNNY   70  67  90 S3        29.92S
SMYRNA         FAIR      69  67  93 CALM      29.96R
MURFREESBORO   SUNNY     72  68  88 CALM      29.94R
COOKEVILLE     SUNNY     70  70 100 CALM      29.96R
LIVINGSTON     MOSUNNY   70  68  94 CALM      29.97R
CROSSVILLE     FAIR      68  66  93 CALM      30.01R
ROCKWOOD       CLOUDY    68  66  94 CALM      30.00R FOG
$$

TNZ061-075-076-078-094-096-097-271300-
SOUTH MIDDLE TENNESSEE

CITY           SKY/WX    TMP DP  RH WIND       PRES   REMARKS
LEWISBURG      SUNNY     68  66  94 CALM      29.94S
TULLAHOMA      SUNNY     70  68  94 CALM      29.95S
WINCHESTER     SUNNY     72  68  88 CALM      29.96R
MCMINNVILLE    SUNNY     70  68  94 CALM      29.96S
COLUMBIA       SUNNY     70  70 100 CALM      29.93S
SHELBYVILLE    SUNNY     70  68  94 CALM      29.95R
$$

TNZ017-018-042-046-047-271300-
NORTHEAST TENNESSEE

CITY           SKY/WX    TMP DP  RH WIND       PRES   REMARKS
TRI CITIES     PTSUNNY   70  69  97 CALM      30.03R
ELIZABETHTON   CLOUDY    70  68  94 CALM      30.04R
GREENEVILLE    MOSUNNY   70  66  88 CALM      30.03R
$$

TNZ012-013-036-069-073-074-271300-
CENTRAL EAST TENNESSEE

CITY           SKY/WX    TMP DP  RH WIND       PRES   REMARKS
KNOXVILLE      NOT AVBL
OAK RIDGE      FAIR      70  70 100 CALM      29.99R
DOWNTOWN KNOXV SUNNY     70  70 100 CALM      29.99S
GATLINBURG     SUNNY     70  68  94 CALM      29.99S
MORRISTOWN     PTSUNNY   68  68 100 CALM      30.00S
JACKSBORO      CLOUDY    68  68 100 CALM      30.02R
$$

TNZ083-085-099-271300-
SOUTHEAST TENNESSEE

CITY           SKY/WX    TMP DP  RH WIND       PRES   REMARKS
CHATTANOOGA    PTSUNNY   72  68  87 CALM      29.96S
DAYTON         MOSUNNY   72  70  94 CALM      29.96S
$$

SKY/WX REPORTED AS FAIR MEANS FEW OR NO CLOUDS BELOW
12 THOUSAND FEET.





USA.gov is the U.S. government's official web portal to all federal, state and local government web resources and services.